Time,TemperatureF,DewpointF,PressureIn,WindDirection,WindDirectionDegrees,WindSpeedMPH,WindSpeedGustMPH,Humidity,HourlyPrecipIn,Conditions,Clouds,dailyrainin,SoftwareType,DateUTC
2013-11-08 00:00:00,37.0,30.8,30.19,WSW,248,2.0,4.0,78,0.00,,,0.00,Wunderground v.1.13,2013-11-08 05:00:00,
2013-11-08 00:05:00,37.0,30.8,30.19,WSW,248,2.0,4.0,78,0.00,,,0.00,Wunderground v.1.13,2013-11-08 05:05:00,
2013-11-08 00:10:00,37.1,30.6,30.20,WSW,248,2.0,6.0,77,0.00,,,0.00,Wunderground v.1.13,2013-11-08 05:10:00,
2013-11-08 00:15:00,37.2,30.7,30.20,WSW,248,3.0,7.0,77,0.00,,,0.00,Wunderground v.1.13,2013-11-08 05:15:00,
2013-11-08 00:20:00,37.2,30.7,30.20,West,270,2.0,5.0,77,0.00,,,0.00,Wunderground v.1.13,2013-11-08 05:20:00,
2013-11-08 00:25:00,37.1,30.6,30.20,SSW,203,2.0,5.0,77,0.00,,,0.00,Wunderground v.1.13,2013-11-08 05:25:00,
2013-11-08 00:30:00,37.0,30.5,30.20,West,270,2.0,6.0,77,0.00,,,0.00,Wunderground v.1.13,2013-11-08 05:30:00,
2013-11-08 00:35:00,36.9,30.7,30.21,SW,225,2.0,6.0,78,0.00,,,0.00,Wunderground v.1.13,2013-11-08 05:35:00,
2013-11-08 00:40:00,36.8,30.6,30.21,West,270,1.0,5.0,78,0.00,,,0.00,Wunderground v.1.13,2013-11-08 05:40:00,
2013-11-08 00:45:00,36.6,30.4,30.21,WSW,248,2.0,4.0,78,0.00,,,0.00,Wunderground v.1.13,2013-11-08 05:45:00,
2013-11-08 00:50:00,36.5,30.3,30.22,WSW,248,2.0,4.0,78,0.00,,,0.00,Wunderground v.1.13,2013-11-08 05:50:00,
2013-11-08 00:55:00,36.5,30.3,30.22,WSW,248,0.0,2.0,78,0.00,,,0.00,Wunderground v.1.13,2013-11-08 05:55:00,
2013-11-08 01:00:00,36.4,30.2,30.22,WSW,248,1.0,3.0,78,0.00,,,0.00,Wunderground v.1.13,2013-11-08 06:00:00,
2013-11-08 01:05:00,36.4,30.2,30.23,West,270,1.0,5.0,78,0.00,,,0.00,Wunderground v.1.13,2013-11-08 06:05:00,
2013-11-08 01:10:00,36.5,30.3,30.23,West,270,2.0,4.0,78,0.00,,,0.00,Wunderground v.1.13,2013-11-08 06:10:00,
2013-11-08 01:15:00,36.7,30.2,30.23,WSW,248,2.0,4.0,77,0.00,,,0.00,Wunderground v.1.13,2013-11-08 06:15:00,
2013-11-08 01:20:00,36.9,30.4,30.24,West,270,2.0,6.0,77,0.00,,,0.00,Wunderground v.1.13,2013-11-08 06:20:00,
2013-11-08 01:25:00,36.9,30.4,30.24,West,270,4.0,6.0,77,0.00,,,0.00,Wunderground v.1.13,2013-11-08 06:25:00,
2013-11-08 01:30:00,37.3,30.4,30.24,WSW,248,4.0,11.0,76,0.00,,,0.00,Wunderground v.1.13,2013-11-08 06:30:00,
2013-11-08 01:35:00,37.5,30.6,30.25,West,270,3.0,11.0,76,0.00,,,0.00,Wunderground v.1.13,2013-11-08 06:35:00,
2013-11-08 01:40:00,37.7,30.8,30.24,West,270,3.0,10.0,76,0.00,,,0.00,Wunderground v.1.13,2013-11-08 06:40:00,
2013-11-08 01:45:00,38.4,31.2,30.25,SSW,203,2.0,5.0,75,0.00,,,0.00,Wunderground v.1.13,2013-11-08 06:45:00,
2013-11-08 01:50:00,38.5,30.9,30.25,WSW,248,4.0,9.0,74,0.00,,,0.00,Wunderground v.1.13,2013-11-08 06:50:00,
2013-11-08 01:55:00,38.6,31.0,30.25,WSW,248,3.0,12.0,74,0.00,,,0.00,Wunderground v.1.13,2013-11-08 06:55:00,
2013-11-08 02:00:00,38.7,30.8,30.25,WSW,248,5.0,9.0,73,0.00,,,0.00,Wunderground v.1.13,2013-11-08 07:00:00,
2013-11-08 02:05:00,39.0,31.1,30.25,WSW,248,4.0,11.0,73,0.00,,,0.00,Wunderground v.1.13,2013-11-08 07:05:00,
2013-11-08 02:10:00,39.3,31.0,30.25,SW,225,5.0,12.0,72,0.00,,,0.00,Wunderground v.1.13,2013-11-08 07:10:00,
2013-11-08 02:15:00,39.6,31.3,30.26,WSW,248,4.0,9.0,72,0.00,,,0.00,Wunderground v.1.13,2013-11-08 07:15:00,
2013-11-08 02:20:00,39.6,31.3,30.26,WSW,248,3.0,11.0,72,0.00,,,0.00,Wunderground v.1.13,2013-11-08 07:20:00,
2013-11-08 02:25:00,39.6,31.0,30.26,WSW,248,6.0,15.0,71,0.00,,,0.00,Wunderground v.1.13,2013-11-08 07:25:00,
2013-11-08 02:30:00,39.8,31.2,30.26,West,270,5.0,11.0,71,0.00,,,0.00,Wunderground v.1.13,2013-11-08 07:30:00,
2013-11-08 02:35:00,39.8,31.2,30.26,West,270,6.0,15.0,71,0.00,,,0.00,Wunderground v.1.13,2013-11-08 07:35:00,
2013-11-08 02:40:00,39.6,31.0,30.26,West,270,6.0,12.0,71,0.00,,,0.00,Wunderground v.1.13,2013-11-08 07:40:00,
2013-11-08 02:45:00,39.7,31.1,30.27,WNW,293,4.0,13.0,71,0.00,,,0.00,Wunderground v.1.13,2013-11-08 07:45:00,
2013-11-08 02:50:00,39.8,31.2,30.26,WSW,248,4.0,9.0,71,0.00,,,0.00,Wunderground v.1.13,2013-11-08 07:50:00,
2013-11-08 02:55:00,39.9,30.9,30.27,WSW,248,5.0,10.0,70,0.00,,,0.00,Wunderground v.1.13,2013-11-08 07:55:00,
2013-11-08 03:00:00,40.0,31.4,30.26,West,270,4.0,10.0,71,0.00,,,0.00,Wunderground v.1.13,2013-11-08 08:00:00,
2013-11-08 03:05:00,40.3,30.9,30.26,SW,225,6.0,13.0,69,0.00,,,0.00,Wunderground v.1.13,2013-11-08 08:05:00,
2013-11-08 03:10:00,40.8,31.4,30.26,SW,225,5.0,14.0,69,0.00,,,0.00,Wunderground v.1.13,2013-11-08 08:10:00,
2013-11-08 03:15:00,41.4,30.9,30.27,SW,225,5.0,19.0,66,0.00,,,0.00,Wunderground v.1.13,2013-11-08 08:15:00,
2013-11-08 03:20:00,41.5,30.6,30.27,SW,225,5.0,20.0,65,0.00,,,0.00,Wunderground v.1.13,2013-11-08 08:20:00,
2013-11-08 03:25:00,41.1,30.6,30.27,SSW,203,7.0,17.0,66,0.00,,,0.00,Wunderground v.1.13,2013-11-08 08:25:00,
2013-11-08 03:30:00,41.1,30.6,30.27,SW,225,4.0,10.0,66,0.00,,,0.00,Wunderground v.1.13,2013-11-08 08:30:00,
2013-11-08 03:35:00,41.1,30.6,30.28,WSW,248,4.0,8.0,66,0.00,,,0.00,Wunderground v.1.13,2013-11-08 08:35:00,
2013-11-08 03:40:00,41.4,31.3,30.27,SW,225,7.0,14.0,67,0.00,,,0.00,Wunderground v.1.13,2013-11-08 08:40:00,
2013-11-08 03:45:00,41.8,30.9,30.28,SSW,203,5.0,14.0,65,0.00,,,0.00,Wunderground v.1.13,2013-11-08 08:45:00,
2013-11-08 03:50:00,41.9,31.0,30.28,West,270,5.0,12.0,65,0.00,,,0.00,Wunderground v.1.13,2013-11-08 08:50:00,
2013-11-08 03:55:00,42.2,31.3,30.28,SW,225,4.0,11.0,65,0.00,,,0.00,Wunderground v.1.13,2013-11-08 08:55:00,
2013-11-08 04:00:00,42.2,30.9,30.28,SW,225,6.0,16.0,64,0.00,,,0.00,Wunderground v.1.13,2013-11-08 09:00:00,
2013-11-08 04:05:00,42.0,31.1,30.28,West,270,5.0,12.0,65,0.00,,,0.00,Wunderground v.1.13,2013-11-08 09:05:00,
2013-11-08 04:10:00,41.5,30.2,30.28,SW,225,6.0,14.0,64,0.00,,,0.00,Wunderground v.1.13,2013-11-08 09:10:00,
2013-11-08 04:15:00,41.5,29.8,30.28,SW,225,5.0,10.0,63,0.00,,,0.00,Wunderground v.1.13,2013-11-08 09:15:00,
2013-11-08 04:20:00,41.7,30.0,30.28,SW,225,5.0,13.0,63,0.00,,,0.00,Wunderground v.1.13,2013-11-08 09:20:00,
2013-11-08 04:25:00,42.3,29.4,30.28,WSW,248,5.0,15.0,60,0.00,,,0.00,Wunderground v.1.13,2013-11-08 09:25:00,
2013-11-08 04:30:00,42.0,29.1,30.28,WSW,248,7.0,12.0,60,0.00,,,0.00,Wunderground v.1.13,2013-11-08 09:30:00,
2013-11-08 04:35:00,42.0,29.9,30.28,West,270,4.0,10.0,62,0.00,,,0.00,Wunderground v.1.13,2013-11-08 09:35:00,
2013-11-08 04:40:00,42.7,29.8,30.28,WSW,248,5.0,16.0,60,0.00,,,0.00,Wunderground v.1.13,2013-11-08 09:40:00,
2013-11-08 04:45:00,43.3,30.7,30.28,WSW,248,3.0,11.0,61,0.00,,,0.00,Wunderground v.1.13,2013-11-08 09:45:00,
2013-11-08 04:50:00,42.8,29.5,30.28,SW,225,7.0,15.0,59,0.00,,,0.00,Wunderground v.1.13,2013-11-08 09:50:00,
2013-11-08 04:55:00,42.5,29.2,30.28,WSW,248,6.0,16.0,59,0.00,,,0.00,Wunderground v.1.13,2013-11-08 09:55:00,
2013-11-08 05:00:00,42.3,29.4,30.28,WSW,248,5.0,14.0,60,0.00,,,0.00,Wunderground v.1.13,2013-11-08 10:00:00,
2013-11-08 05:05:00,42.2,29.3,30.28,WSW,248,6.0,12.0,60,0.00,,,0.00,Wunderground v.1.13,2013-11-08 10:05:00,
2013-11-08 05:10:00,42.2,28.9,30.28,SSW,203,6.0,12.0,59,0.00,,,0.00,Wunderground v.1.13,2013-11-08 10:10:00,
2013-11-08 05:15:00,42.1,28.8,30.28,SW,225,5.0,11.0,59,0.00,,,0.00,Wunderground v.1.13,2013-11-08 10:15:00,
2013-11-08 05:20:00,42.3,29.4,30.28,SW,225,5.0,10.0,60,0.00,,,0.00,Wunderground v.1.13,2013-11-08 10:20:00,
2013-11-08 05:25:00,42.5,29.2,30.28,SW,225,5.0,12.0,59,0.00,,,0.00,Wunderground v.1.13,2013-11-08 10:25:00,
2013-11-08 05:30:00,42.6,29.3,30.28,West,270,4.0,9.0,59,0.00,,,0.00,Wunderground v.1.13,2013-11-08 10:30:00,
2013-11-08 05:35:00,42.5,29.2,30.28,SW,225,6.0,12.0,59,0.00,,,0.00,Wunderground v.1.13,2013-11-08 10:35:00,
2013-11-08 05:40:00,42.8,29.5,30.27,WSW,248,4.0,11.0,59,0.00,,,0.00,Wunderground v.1.13,2013-11-08 10:40:00,
2013-11-08 05:45:00,42.5,29.6,30.27,WSW,248,7.0,14.0,60,0.00,,,0.00,Wunderground v.1.13,2013-11-08 10:45:00,
2013-11-08 05:50:00,42.4,29.5,30.27,SSW,203,6.0,16.0,60,0.00,,,0.00,Wunderground v.1.13,2013-11-08 10:50:00,
2013-11-08 05:55:00,42.6,29.7,30.27,SW,225,5.0,11.0,60,0.00,,,0.00,Wunderground v.1.13,2013-11-08 10:55:00,
2013-11-08 06:00:00,42.7,29.8,30.27,WSW,248,5.0,13.0,60,0.00,,,0.00,Wunderground v.1.13,2013-11-08 11:00:00,
2013-11-08 06:05:00,42.7,28.9,30.27,SSW,203,5.0,13.0,58,0.00,,,0.00,Wunderground v.1.13,2013-11-08 11:05:00,
2013-11-08 06:10:00,42.5,29.6,30.27,WSW,248,6.0,14.0,60,0.00,,,0.00,Wunderground v.1.13,2013-11-08 11:10:00,
2013-11-08 06:15:00,42.5,29.6,30.27,SW,225,7.0,16.0,60,0.00,,,0.00,Wunderground v.1.13,2013-11-08 11:15:00,
2013-11-08 06:20:00,42.5,29.6,30.27,SW,225,7.0,13.0,60,0.00,,,0.00,Wunderground v.1.13,2013-11-08 11:20:00,
2013-11-08 06:25:00,42.4,29.1,30.27,WSW,248,5.0,11.0,59,0.00,,,0.00,Wunderground v.1.13,2013-11-08 11:25:00,
2013-11-08 06:30:00,42.8,29.5,30.26,SW,225,5.0,11.0,59,0.00,,,0.00,Wunderground v.1.13,2013-11-08 11:30:00,
2013-11-08 06:35:00,42.8,28.2,30.26,SSW,203,5.0,13.0,56,0.00,,,0.00,Wunderground v.1.13,2013-11-08 11:35:00,
2013-11-08 06:40:00,42.9,27.8,30.26,SW,225,4.0,9.0,55,0.00,,,0.00,Wunderground v.1.13,2013-11-08 11:40:00,
2013-11-08 06:45:00,43.1,28.0,30.26,SW,225,5.0,12.0,55,0.00,,,0.00,Wunderground v.1.13,2013-11-08 11:45:00,
2013-11-08 06:50:00,43.9,28.8,30.26,SW,225,5.0,12.0,55,0.00,,,0.00,Wunderground v.1.13,2013-11-08 11:50:00,
2013-11-08 06:55:00,44.0,28.0,30.26,SW,225,6.0,15.0,53,0.00,,,0.00,Wunderground v.1.13,2013-11-08 11:55:00,
2013-11-08 07:00:00,43.6,28.0,30.26,SSW,203,4.0,13.0,54,0.00,,,0.00,Wunderground v.1.13,2013-11-08 12:00:00,
2013-11-08 07:05:00,43.3,28.2,30.26,SW,225,5.0,11.0,55,0.00,,,0.00,Wunderground v.1.13,2013-11-08 12:05:00,
2013-11-08 07:10:00,43.0,28.8,30.26,SW,225,4.0,12.0,57,0.00,,,0.00,Wunderground v.1.13,2013-11-08 12:10:00,
2013-11-08 07:15:00,43.1,29.3,30.26,West,270,5.0,10.0,58,0.00,,,0.00,Wunderground v.1.13,2013-11-08 12:15:00,
2013-11-08 07:20:00,43.6,29.4,30.26,WSW,248,3.0,8.0,57,0.00,,,0.00,Wunderground v.1.13,2013-11-08 12:20:00,
2013-11-08 07:25:00,44.4,29.7,30.26,West,270,5.0,11.0,56,0.00,,,0.00,Wunderground v.1.13,2013-11-08 12:25:00,
2013-11-08 07:30:00,45.0,28.9,30.26,SW,225,6.0,16.0,53,0.00,,,0.00,Wunderground v.1.13,2013-11-08 12:30:00,
2013-11-08 07:35:00,45.2,29.5,30.26,SW,225,4.0,9.0,54,0.00,,,0.00,Wunderground v.1.13,2013-11-08 12:35:00,
2013-11-08 07:40:00,44.8,29.2,30.26,West,270,4.0,13.0,54,0.00,,,0.00,Wunderground v.1.13,2013-11-08 12:40:00,
2013-11-08 07:45:00,44.6,28.5,30.26,WSW,248,4.0,11.0,53,0.00,,,0.00,Wunderground v.1.13,2013-11-08 12:45:00,
2013-11-08 07:50:00,44.3,27.8,30.26,WSW,248,5.0,13.0,52,0.00,,,0.00,Wunderground v.1.13,2013-11-08 12:50:00,
2013-11-08 07:55:00,44.2,27.7,30.26,West,270,5.0,12.0,52,0.00,,,0.00,Wunderground v.1.13,2013-11-08 12:55:00,
2013-11-08 08:00:00,44.1,27.6,30.26,West,270,4.0,10.0,52,0.00,,,0.00,Wunderground v.1.13,2013-11-08 13:00:00,
2013-11-08 08:05:00,44.6,28.5,30.26,WSW,248,4.0,9.0,53,0.00,,,0.00,Wunderground v.1.13,2013-11-08 13:05:00,
2013-11-08 08:10:00,37.1,30.6,30.24,West,277,2.0,6.0,77,0.00,,,0.00,Wunderground v.1.13,2013-11-08 13:10:00,
2013-11-08 08:15:00,37.3,30.4,30.24,West,277,4.0,6.0,76,0.00,,,0.00,Wunderground v.1.13,2013-11-08 13:15:00,
2013-11-08 08:20:00,37.5,30.6,30.24,South,186,4.0,4.0,76,0.00,,,0.00,Wunderground v.1.13,2013-11-08 13:20:00,
2013-11-08 08:25:00,37.8,30.9,30.24,South,173,3.0,3.0,76,0.00,,,0.00,Wunderground v.1.13,2013-11-08 13:25:00,
2013-11-08 08:30:00,38.4,31.2,30.25,WNW,299,3.0,3.0,75,0.00,,,0.00,Wunderground v.1.13,2013-11-08 13:30:00,
2013-11-08 08:35:00,38.5,30.9,30.25,SSW,192,3.0,3.0,74,0.00,,,0.00,Wunderground v.1.13,2013-11-08 13:35:00,
2013-11-08 08:40:00,38.6,31.0,30.25,SSW,198,3.0,7.0,74,0.00,,,0.00,Wunderground v.1.13,2013-11-08 13:40:00,
2013-11-08 08:45:00,38.7,31.1,30.25,SSW,211,4.0,6.0,74,0.00,,,0.00,Wunderground v.1.13,2013-11-08 13:45:00,
2013-11-08 08:50:00,39.1,31.2,30.25,SW,227,5.0,6.0,73,0.00,,,0.00,Wunderground v.1.13,2013-11-08 13:50:00,
2013-11-08 09:00:00,39.6,31.3,30.26,WNW,292,5.0,5.0,72,0.00,,,0.00,Wunderground v.1.13,2013-11-08 14:00:00,
2013-11-08 09:05:00,39.7,31.4,30.26,South,175,4.0,4.0,72,0.00,,,0.00,Wunderground v.1.13,2013-11-08 14:05:00,
2013-11-08 09:15:00,39.8,31.5,30.26,WNW,283,6.0,6.0,72,0.00,,,0.00,Wunderground v.1.13,2013-11-08 14:15:00,
2013-11-08 09:20:00,39.8,30.8,30.26,SW,234,5.0,11.0,70,0.00,,,0.00,Wunderground v.1.13,2013-11-08 14:20:00,
2013-11-08 09:30:00,39.7,31.1,30.27,SW,229,5.0,5.0,71,0.00,,,0.00,Wunderground v.1.13,2013-11-08 14:30:00,
2013-11-08 09:35:00,39.8,31.2,30.27,West,279,4.0,11.0,71,0.00,,,0.00,Wunderground v.1.13,2013-11-08 14:35:00,
2013-11-08 09:45:00,40.1,31.1,30.27,South,184,5.0,5.0,70,0.00,,,0.00,Wunderground v.1.13,2013-11-08 14:45:00,
2013-11-08 09:55:00,41.0,31.6,30.27,SW,225,6.0,11.0,69,0.00,,,0.00,Wunderground v.1.13,2013-11-08 14:55:00,
2013-11-08 10:05:00,41.4,30.5,30.27,SSW,208,5.0,20.0,65,0.00,,,0.00,Wunderground v.1.13,2013-11-08 15:05:00,
2013-11-08 10:15:00,41.1,30.6,30.28,WSW,244,6.0,6.0,66,0.00,,,0.00,Wunderground v.1.13,2013-11-08 15:15:00,
2013-11-08 10:25:00,41.5,31.0,30.28,WNW,297,5.0,5.0,66,0.00,,,0.00,Wunderground v.1.13,2013-11-08 15:25:00,
2013-11-08 10:35:00,41.9,31.0,30.28,WSW,238,5.0,20.0,65,0.00,,,0.00,Wunderground v.1.13,2013-11-08 15:35:00,
2013-11-08 10:45:00,42.2,30.9,30.28,SW,214,5.0,20.0,64,0.00,,,0.00,Wunderground v.1.13,2013-11-08 15:45:00,
2013-11-08 10:50:00,42.0,30.7,30.28,WSW,252,5.0,20.0,64,0.00,,,0.00,Wunderground v.1.13,2013-11-08 15:50:00,
2013-11-08 11:00:00,41.5,29.8,30.28,SW,227,6.0,6.0,63,0.00,,,0.00,Wunderground v.1.13,2013-11-08 16:00:00,
2013-11-08 11:05:00,41.7,29.6,30.28,SW,219,5.0,13.0,62,0.00,,,0.00,Wunderground v.1.13,2013-11-08 16:05:00,
2013-11-08 11:15:00,42.0,29.1,30.28,SW,236,6.0,6.0,60,0.00,,,0.00,Wunderground v.1.13,2013-11-08 16:15:00,
2013-11-08 11:20:00,42.1,30.0,30.28,South,173,6.0,6.0,62,0.00,,,0.00,Wunderground v.1.13,2013-11-08 16:20:00,
2013-11-08 11:30:00,43.3,29.9,30.28,SW,219,4.0,14.0,59,0.00,,,0.00,Wunderground v.1.13,2013-11-08 16:30:00,
2013-11-08 11:40:00,42.5,29.2,30.28,WSW,253,7.0,7.0,59,0.00,,,0.00,Wunderground v.1.13,2013-11-08 16:40:00,
2013-11-08 11:50:00,42.2,29.3,30.28,WSW,250,5.0,13.0,60,0.00,,,0.00,Wunderground v.1.13,2013-11-08 16:50:00,
2013-11-08 12:00:00,42.2,28.9,30.28,SW,232,5.0,13.0,59,0.00,,,0.00,Wunderground v.1.13,2013-11-08 17:00:00,
2013-11-08 12:05:00,42.3,29.0,30.28,West,261,5.0,5.0,59,0.00,,,0.00,Wunderground v.1.13,2013-11-08 17:05:00,
2013-11-08 12:15:00,42.6,29.3,30.28,West,261,5.0,10.0,59,0.00,,,0.00,Wunderground v.1.13,2013-11-08 17:15:00,
2013-11-08 12:24:00,42.8,29.5,30.27,WSW,254,5.0,10.0,59,0.00,,,0.00,Wunderground v.1.13,2013-11-08 17:24:00,
2013-11-08 12:30:00,42.5,29.6,30.27,WSW,241,5.0,10.0,60,0.00,,,0.00,Wunderground v.1.13,2013-11-08 17:30:00,
2013-11-08 12:40:00,42.6,29.7,30.27,WSW,253,6.0,6.0,60,0.00,,,0.00,Wunderground v.1.13,2013-11-08 17:40:00,
2013-11-08 12:50:00,42.7,28.9,30.27,SSW,195,5.0,5.0,58,0.00,,,0.00,Wunderground v.1.13,2013-11-08 17:50:00,
2013-11-08 13:00:00,42.5,29.6,30.27,SW,221,7.0,10.0,60,0.00,,,0.00,Wunderground v.1.13,2013-11-08 18:00:00,
2013-11-08 13:05:00,42.5,29.6,30.27,West,263,7.0,7.0,60,0.00,,,0.00,Wunderground v.1.13,2013-11-08 18:05:00,
2013-11-08 13:14:00,42.7,29.4,30.26,SW,219,5.0,13.0,59,0.00,,,0.00,Wunderground v.1.13,2013-11-08 18:14:00,
2013-11-08 13:19:00,42.8,28.2,30.26,SSW,197,5.0,5.0,56,0.00,,,0.00,Wunderground v.1.13,2013-11-08 18:19:00,
2013-11-08 13:30:00,43.1,28.0,30.26,South,181,5.0,5.0,55,0.00,,,0.00,Wunderground v.1.13,2013-11-08 18:30:00,
2013-11-08 13:39:00,44.0,28.4,30.26,West,279,5.0,5.0,54,0.00,,,0.00,Wunderground v.1.13,2013-11-08 18:39:00,
2013-11-08 13:44:00,43.6,28.0,30.26,SSE,152,6.0,6.0,54,0.00,,,0.00,Wunderground v.1.13,2013-11-08 18:44:00,
2013-11-08 13:49:00,43.3,28.2,30.26,SW,230,5.0,5.0,55,0.00,,,0.00,Wunderground v.1.13,2013-11-08 18:49:00,
2013-11-08 13:59:00,43.0,29.2,30.26,West,265,5.0,13.0,58,0.00,,,0.00,Wunderground v.1.13,2013-11-08 18:59:00,
2013-11-08 14:05:00,43.7,29.5,30.26,SW,226,4.0,10.0,57,0.00,,,0.00,Wunderground v.1.13,2013-11-08 19:05:00,
2013-11-08 14:14:00,45.0,28.9,30.26,SW,217,5.0,5.0,53,0.00,,,0.00,Wunderground v.1.13,2013-11-08 19:14:00,
2013-11-08 14:24:00,44.8,29.2,30.26,WSW,248,4.0,4.0,54,0.00,,,0.00,Wunderground v.1.13,2013-11-08 19:24:00,
2013-11-08 14:34:00,44.3,27.8,30.26,West,263,5.0,8.0,52,0.00,,,0.00,Wunderground v.1.13,2013-11-08 19:34:00,
2013-11-08 14:44:00,44.1,27.6,30.26,West,276,5.0,5.0,52,0.00,,,0.00,Wunderground v.1.13,2013-11-08 19:44:00,
2013-11-08 14:54:00,44.9,27.8,30.26,ESE,110,4.0,4.0,51,0.00,,,0.00,Wunderground v.1.13,2013-11-08 19:54:00,
2013-11-08 15:05:00,44.6,27.6,30.27,WSW,254,5.0,5.0,51,0.00,,,0.00,Wunderground v.1.13,2013-11-08 20:05:00,
2013-11-08 15:14:00,43.9,27.9,30.27,SW,218,4.0,4.0,53,0.00,,,0.00,Wunderground v.1.13,2013-11-08 20:14:00,
2013-11-08 15:24:00,43.7,28.1,30.27,SSW,207,2.0,9.0,54,0.00,,,0.00,Wunderground v.1.13,2013-11-08 20:24:00,
2013-11-08 15:29:00,43.6,27.6,30.27,SSW,209,3.0,9.0,53,0.00,,,0.00,Wunderground v.1.13,2013-11-08 20:29:00,
2013-11-08 15:34:00,43.6,27.6,30.27,SW,232,4.0,4.0,53,0.00,,,0.00,Wunderground v.1.13,2013-11-08 20:34:00,
2013-11-08 15:44:00,44.0,28.0,30.27,SW,226,3.0,3.0,53,0.00,,,0.00,Wunderground v.1.13,2013-11-08 20:44:00,
2013-11-08 15:49:00,43.9,27.4,30.28,WSW,244,3.0,9.0,52,0.00,,,0.00,Wunderground v.1.13,2013-11-08 20:49:00,
2013-11-08 15:54:00,43.8,27.8,30.27,SW,221,4.0,9.0,53,0.00,,,0.00,Wunderground v.1.13,2013-11-08 20:54:00,
2013-11-08 16:04:00,44.7,28.1,30.27,WSW,237,3.0,10.0,52,0.00,,,0.00,Wunderground v.1.13,2013-11-08 21:04:00,
2013-11-08 16:14:00,44.7,27.7,30.27,SW,220,4.0,4.0,51,0.00,,,0.00,Wunderground v.1.13,2013-11-08 21:14:00,
2013-11-08 16:19:00,44.4,27.4,30.27,West,270,4.0,4.0,51,0.00,,,0.00,Wunderground v.1.13,2013-11-08 21:19:00,
2013-11-08 16:29:00,44.3,27.8,30.27,WSW,252,2.0,10.0,52,0.00,,,0.00,Wunderground v.1.13,2013-11-08 21:29:00,
2013-11-08 16:34:00,44.3,28.2,30.27,West,275,2.0,10.0,53,0.00,,,0.00,Wunderground v.1.13,2013-11-08 21:34:00,
2013-11-08 16:44:00,44.0,28.0,30.27,WSW,254,2.0,10.0,53,0.00,,,0.00,Wunderground v.1.13,2013-11-08 21:44:00,
2013-11-08 16:54:00,43.2,26.7,30.27,SW,235,4.0,10.0,52,0.00,,,0.00,Wunderground v.1.13,2013-11-08 21:54:00,
2013-11-08 17:04:00,42.5,27.0,30.27,WSW,242,3.0,3.0,54,0.00,,,0.00,Wunderground v.1.13,2013-11-08 22:04:00,
2013-11-08 17:14:00,42.0,27.0,30.27,WSW,238,1.0,1.0,55,0.00,,,0.00,Wunderground v.1.13,2013-11-08 22:14:00,
2013-11-08 17:24:00,41.6,27.5,30.28,WSW,238,0.0,8.0,57,0.00,,,0.00,Wunderground v.1.13,2013-11-08 22:24:00,
2013-11-08 17:34:00,41.0,27.8,30.28,WSW,238,0.0,8.0,59,0.00,,,0.00,Wunderground v.1.13,2013-11-08 22:34:00,
2013-11-08 17:43:00,40.4,27.2,30.28,WSW,238,0.0,8.0,59,0.00,,,0.00,Wunderground v.1.13,2013-11-08 22:43:00,
2013-11-08 17:48:00,40.1,27.3,30.28,WSW,238,0.0,8.0,60,0.00,,,0.00,Wunderground v.1.13,2013-11-08 22:48:00,
2013-11-08 17:54:00,39.8,27.0,30.28,WSW,238,0.0,8.0,60,0.00,,,0.00,Wunderground v.1.13,2013-11-08 22:54:00,
2013-11-08 18:04:00,39.3,27.4,30.29,WSW,238,1.0,1.0,62,0.00,,,0.00,Wunderground v.1.13,2013-11-08 23:04:00,
2013-11-08 18:13:00,38.9,27.8,30.30,WSW,238,0.0,1.0,64,0.00,,,0.00,Wunderground v.1.13,2013-11-08 23:13:00,
2013-11-08 18:19:00,38.7,27.2,30.29,WSW,238,0.0,1.0,63,0.00,,,0.00,Wunderground v.1.13,2013-11-08 23:19:00,
2013-11-08 18:24:00,38.5,27.0,30.30,WSW,238,0.0,1.0,63,0.00,,,0.00,Wunderground v.1.13,2013-11-08 23:24:00,
2013-11-08 18:34:00,38.4,28.4,30.30,WSW,238,0.0,1.0,67,0.00,,,0.00,Wunderground v.1.13,2013-11-08 23:34:00,
2013-11-08 18:43:00,38.3,27.9,30.30,WSW,238,0.0,1.0,66,0.00,,,0.00,Wunderground v.1.13,2013-11-08 23:43:00,
2013-11-08 18:49:00,38.0,28.0,30.30,WSW,238,0.0,1.0,67,0.00,,,0.00,Wunderground v.1.13,2013-11-08 23:49:00,
2013-11-08 18:58:00,37.7,27.7,30.30,WSW,238,0.0,1.0,67,0.00,,,0.00,Wunderground v.1.13,2013-11-08 23:58:00,
2013-11-08 19:04:00,37.4,27.8,30.30,WSW,238,0.0,0.0,68,0.00,,,0.00,Wunderground v.1.13,2013-11-09 00:04:00,
2013-11-08 19:13:00,36.9,27.3,30.30,WSW,238,0.0,0.0,68,0.00,,,0.00,Wunderground v.1.13,2013-11-09 00:13:00,
2013-11-08 19:19:00,36.6,27.4,30.31,WSW,238,0.0,0.0,69,0.00,,,0.00,Wunderground v.1.13,2013-11-09 00:19:00,
2013-11-08 19:29:00,36.0,27.2,30.30,WSW,238,0.0,0.0,70,0.00,,,0.00,Wunderground v.1.13,2013-11-09 00:29:00,
2013-11-08 19:38:00,35.6,27.1,30.30,WSW,238,0.0,0.0,71,0.00,,,0.00,Wunderground v.1.13,2013-11-09 00:38:00,
2013-11-08 19:48:00,35.1,27.0,30.30,WSW,238,0.0,0.0,72,0.00,,,0.00,Wunderground v.1.13,2013-11-09 00:48:00,
2013-11-08 19:54:00,34.9,26.8,30.30,WSW,238,0.0,0.0,72,0.00,,,0.00,Wunderground v.1.13,2013-11-09 00:54:00,
2013-11-08 20:04:00,34.4,26.6,30.30,WSW,238,0.0,0.0,73,0.00,,,0.00,Wunderground v.1.13,2013-11-09 01:04:00,
2013-11-08 20:13:00,34.3,26.5,30.31,WSW,238,0.0,0.0,73,0.00,,,0.00,Wunderground v.1.13,2013-11-09 01:13:00,
2013-11-08 20:18:00,34.1,26.7,30.31,WSW,238,0.0,0.0,74,0.00,,,0.00,Wunderground v.1.13,2013-11-09 01:18:00,
2013-11-08 20:23:00,33.7,26.3,30.31,WSW,238,0.0,0.0,74,0.00,,,0.00,Wunderground v.1.13,2013-11-09 01:23:00,
2013-11-08 20:29:00,33.6,26.5,30.31,WSW,238,0.0,0.0,75,0.00,,,0.00,Wunderground v.1.13,2013-11-09 01:29:00,
2013-11-08 20:34:00,33.5,26.7,30.31,WSW,238,0.0,0.0,76,0.00,,,0.00,Wunderground v.1.13,2013-11-09 01:34:00,
2013-11-08 20:39:00,33.4,26.6,30.31,WSW,238,0.0,0.0,76,0.00,,,0.00,Wunderground v.1.13,2013-11-09 01:39:00,
2013-11-08 20:44:00,33.3,26.5,30.32,WSW,238,0.0,0.0,76,0.00,,,0.00,Wunderground v.1.13,2013-11-09 01:44:00,
2013-11-08 20:53:00,32.9,26.2,30.31,WSW,238,0.0,0.0,76,0.00,,,0.00,Wunderground v.1.13,2013-11-09 01:53:00,
2013-11-08 20:59:00,32.7,26.0,30.31,WSW,238,0.0,0.0,76,0.00,,,0.00,Wunderground v.1.13,2013-11-09 01:59:00,
2013-11-08 21:04:00,32.6,26.2,30.32,WSW,238,0.0,0.0,77,0.00,,,0.00,Wunderground v.1.13,2013-11-09 02:04:00,
2013-11-08 21:14:00,32.3,26.2,30.32,WSW,238,0.0,0.0,78,0.00,,,0.00,Wunderground v.1.13,2013-11-09 02:14:00,
2013-11-08 21:23:00,32.1,26.0,30.32,WSW,238,0.0,0.0,78,0.00,,,0.00,Wunderground v.1.13,2013-11-09 02:23:00,
2013-11-08 21:28:00,32.0,26.2,30.32,WSW,238,0.0,0.0,79,0.00,,,0.00,Wunderground v.1.13,2013-11-09 02:28:00,
2013-11-08 21:33:00,31.9,26.1,30.32,WSW,238,0.0,0.0,79,0.00,,,0.00,Wunderground v.1.13,2013-11-09 02:33:00,
2013-11-08 21:38:00,31.7,25.9,30.32,WSW,238,0.0,0.0,79,0.00,,,0.00,Wunderground v.1.13,2013-11-09 02:38:00,
2013-11-08 21:44:00,31.6,26.1,30.32,WSW,238,0.0,0.0,80,0.00,,,0.00,Wunderground v.1.13,2013-11-09 02:44:00,
2013-11-08 21:53:00,31.3,25.8,30.32,WSW,238,0.0,0.0,80,0.00,,,0.00,Wunderground v.1.13,2013-11-09 02:53:00,
2013-11-08 22:04:00,31.0,25.6,30.32,WSW,238,0.0,0.0,80,0.00,,,0.00,Wunderground v.1.13,2013-11-09 03:04:00,
2013-11-08 22:13:00,30.8,25.7,30.32,WSW,238,0.0,0.0,81,0.00,,,0.00,Wunderground v.1.13,2013-11-09 03:13:00,
2013-11-08 22:18:00,30.6,25.5,30.32,WSW,238,0.0,0.0,81,0.00,,,0.00,Wunderground v.1.13,2013-11-09 03:18:00,
2013-11-08 22:28:00,30.4,25.3,30.32,WSW,238,0.0,0.0,81,0.00,,,0.00,Wunderground v.1.13,2013-11-09 03:28:00,
2013-11-08 22:38:00,30.2,25.4,30.32,WSW,238,0.0,0.0,82,0.00,,,0.00,Wunderground v.1.13,2013-11-09 03:38:00,
2013-11-08 22:43:00,30.1,25.3,30.31,WSW,238,0.0,0.0,82,0.00,,,0.00,Wunderground v.1.13,2013-11-09 03:43:00,
2013-11-08 22:48:00,29.9,25.1,30.31,WSW,238,0.0,0.0,82,0.00,,,0.00,Wunderground v.1.13,2013-11-09 03:48:00,
2013-11-08 22:58:00,29.8,25.3,30.32,WSW,238,0.0,0.0,83,0.00,,,0.00,Wunderground v.1.13,2013-11-09 03:58:00,
2013-11-08 23:04:00,29.7,25.2,30.32,WSW,238,0.0,0.0,83,0.00,,,0.00,Wunderground v.1.13,2013-11-09 04:04:00,
2013-11-08 23:13:00,29.8,25.3,30.32,WSW,238,0.0,0.0,83,0.00,,,0.00,Wunderground v.1.13,2013-11-09 04:13:00,
2013-11-08 23:18:00,29.7,25.2,30.32,WSW,238,0.0,0.0,83,0.00,,,0.00,Wunderground v.1.13,2013-11-09 04:18:00,
2013-11-08 23:28:00,29.6,25.1,30.31,WSW,238,0.0,0.0,83,0.00,,,0.00,Wunderground v.1.13,2013-11-09 04:28:00,
2013-11-08 23:33:00,29.4,24.9,30.31,WSW,238,0.0,0.0,83,0.00,,,0.00,Wunderground v.1.13,2013-11-09 04:33:00,
2013-11-08 23:43:00,29.3,24.8,30.31,WSW,238,0.0,0.0,83,0.00,,,0.00,Wunderground v.1.13,2013-11-09 04:43:00,
2013-11-08 23:48:00,29.3,24.8,30.31,WSW,238,0.0,0.0,83,0.00,,,0.00,Wunderground v.1.13,2013-11-09 04:48:00,
2013-11-08 23:53:00,29.3,24.8,30.31,WSW,238,0.0,0.0,83,0.00,,,0.00,Wunderground v.1.13,2013-11-09 04:53:00,